KD9IXX-13 Weather Reports


Display with metric or nautical units.
time (UTC)temp
F
wind
direction
speed
MPH
gust
MPH
rain 1hr
in
rain 24hr
in
rain mn
in
humidity
%
barometer
mb
20260506051002 49 303 1.0 3.0 0.00 0.00 0.00 63 1011.8
20260506050502 48 304 1.0 3.0 0.00 0.00 0.00 66 1011.8
20260506045002 49 297 0.0 2.0 0.00 0.00 0.07 65 1011.5
20260506044502 49 291 0.0 0.0 0.00 0.00 0.07 65 1011.6
20260506044002 49 291 0.0 0.0 0.00 0.00 0.07 65 1011.8
20260506043502 49 291 0.0 0.0 0.00 0.00 0.07 66 1011.5
20260506043002 49 291 0.0 0.0 0.00 0.00 0.07 65 1012.0
20260506042502 49 291 1.0 2.0 0.00 0.00 0.07 65 1012.0
20260506042001 49 292 0.0 0.0 0.00 0.00 0.07 64 1011.8
20260506041502 50 291 0.0 0.0 0.00 0.00 0.07 63 1011.7
20260506041002 50 292 0.0 0.0 0.00 0.00 0.07 62 1011.9
20260506040501 50 292 1.0 2.0 0.00 0.00 0.07 63 1012.1
20260506040002 50 296 0.0 2.0 0.00 0.00 0.07 63 1012.4
20260506035502 50 298 1.0 2.0 0.00 0.00 0.07 61 1012.2
20260506035002 50 304 0.0 0.0 0.00 0.00 0.07 62 1012.3
20260506034502 50 304 1.0 2.0 0.00 0.00 0.07 62 1012.0
20260506034002 50 305 1.0 2.0 0.00 0.00 0.07 62 1012.1
20260506033502 50 305 0.0 0.0 0.00 0.00 0.07 62 1011.8
20260506033001 50 305 0.0 0.0 0.00 0.00 0.07 62 1012.0
20260506032502 50 305 0.0 0.0 0.00 0.00 0.07 61 1011.9
20260506032002 50 305 0.0 0.0 0.00 0.00 0.07 63 1012.0
20260506031502 50 304 0.0 2.0 0.00 0.00 0.07 61 1011.8
20260506031002 50 305 0.0 0.0 0.00 0.00 0.07 61 1012.0
20260506030503 50 305 0.0 0.0 0.00 0.00 0.07 64 1011.9
20260506025502 50 305 0.0 0.0 0.00 0.00 0.07 60 1011.6
20260506025002 50 305 0.0 0.0 0.00 0.00 0.07 61 1011.7
20260506024502 50 305 0.0 0.0 0.00 0.00 0.07 60 1011.5
20260506024001 50 305 0.0 0.0 0.00 0.00 0.07 58 1011.5
20260506023502 50 305 0.0 0.0 0.00 0.00 0.07 58 1011.4
20260506023002 50 305 0.0 0.0 0.00 0.00 0.07 57 1011.8
20260506022502 50 305 0.0 0.0 0.00 0.00 0.07 57 1011.4
20260506022002 51 305 0.0 0.0 0.00 0.00 0.07 57 1011.5
20260506021502 51 305 2.0 2.0 0.00 0.00 0.07 54 1011.5
20260506021004 51 303 0.0 0.0 0.00 0.00 0.07 55 1011.2
20260506020502 51 304 0.0 0.0 0.00 0.00 0.07 54 1011.5
20260506020002 51 304 0.0 0.0 0.00 0.00 0.07 55 1011.0
20260506015502 51 303 0.0 0.0 0.00 0.00 0.07 53 1011.1
20260506015001 51 301 1.0 2.0 0.00 0.00 0.07 53 1011.1
20260506014502 51 303 0.0 2.0 0.00 0.00 0.07 54 1011.0
20260506014002 51 298 1.0 2.0 0.00 0.00 0.07 53 1010.9
20260506013502 52 299 0.0 3.0 0.00 0.00 0.07 52 1010.7
20260506013002 51 302 0.0 2.0 0.00 0.00 0.07 52 1010.8
20260506012502 52 299 0.0 2.0 0.00 0.00 0.07 52 1010.5
20260506012002 52 297 1.0 2.0 0.00 0.00 0.07 51 1010.6
20260506011501 52 298 2.0 3.0 0.00 0.00 0.07 50 1010.7
20260506011002 52 301 2.0 2.0 0.00 0.00 0.07 52 1010.6
20260506010502 52 297 1.0 2.0 0.00 0.00 0.07 53 1010.5
20260506010002 52 295 0.0 2.0 0.00 0.00 0.07 52 1010.8
20260506005502 52 297 1.0 2.0 0.00 0.00 0.07 51 1010.4
20260506005002 52 303 2.0 2.0 0.00 0.00 0.07 49 1010.4
20260506004502 52 299 1.0 3.0 0.00 0.00 0.07 50 1010.5
20260506004002 52 301 2.0 2.0 0.00 0.00 0.07 49 1010.5
20260506003502 53 299 1.0 3.0 0.00 0.00 0.07 51 1010.4
20260506003002 53 281 2.0 3.0 0.00 0.00 0.07 50 1010.5
20260506002502 53 293 1.0 2.0 0.00 0.00 0.07 50 1010.0
20260506002002 53 296 0.0 0.0 0.00 0.00 0.07 49 1010.1
20260506001502 53 316 2.0 3.0 0.00 0.00 0.07 48 1010.3
20260506001001 53 284 2.0 3.0 0.00 0.00 0.07 47 1010.1
20260506000503 53 303 1.0 3.0 0.00 0.00 0.07 48 1010.2
20260506000002 54 337 5.0 6.0 0.00 0.00 0.07 44 1010.1
20260505235502 54 322 4.0 5.0 0.00 0.07 0.07 45 1009.9
20260505235002 54 323 5.0 6.0 0.00 0.07 0.07 44 1009.9
20260505234502 54 302 3.0 5.0 0.00 0.07 0.07 44 1010.5
20260505234002 54 293 3.0 5.0 0.00 0.00 0.07 44 1010.2
20260505233502 54 328 2.0 4.0 0.00 0.00 0.07 44 1010.4
20260505233002 54 297 2.0 5.0 0.00 0.00 0.07 43 1010.3
20260505232502 54 262 4.0 7.0 0.00 0.00 0.07 42 1010.2
20260505232002 54 305 3.0 6.0 0.00 0.00 0.07 42 1009.9
20260505231502 54 296 3.0 5.0 0.00 0.00 0.07 42 1010.1
20260505231002 54 295 2.0 5.0 0.00 0.00 0.07 42 1010.2
20260505230502 54 275 4.0 6.0 0.00 0.00 0.07 42 1010.3
20260505230002 54 307 2.0 4.0 0.00 0.00 0.07 43 1010.4
20260505225502 54 286 3.0 5.0 0.00 0.00 0.07 42 1010.5
20260505225002 54 299 2.0 5.0 0.00 0.00 0.07 43 1010.4
20260505224502 54 291 4.0 6.0 0.00 0.00 0.07 40 1010.6
20260505224002 54 275 4.0 6.0 0.00 0.00 0.07 42 1010.7
20260505223502 54 339 2.0 5.0 0.00 0.00 0.07 41 1010.7
20260505223002 54 299 2.0 5.0 0.00 0.00 0.07 41 1010.7
20260505222502 54 283 3.0 5.0 0.00 0.00 0.07 44 1010.7
20260505222001 54 311 2.0 5.0 0.00 0.00 0.07 43 1010.5
20260505221502 54 308 3.0 9.0 0.00 0.00 0.07 42 1010.5
20260505221002 54 267 3.0 6.0 0.00 0.00 0.07 43 1010.4
20260505220502 54 258 4.0 5.0 0.00 0.00 0.07 42 1010.5
20260505220002 54 281 3.0 5.0 0.00 0.00 0.07 43 1010.7
20260505215502 54 313 2.0 6.0 0.00 0.00 0.07 43 1010.7
20260505215002 54 276 2.0 4.0 0.00 0.00 0.07 45 1010.7
20260505214502 54 255 3.0 4.0 0.00 0.00 0.07 43 1010.8
20260505214002 55 290 2.0 4.0 0.00 0.00 0.07 44 1010.7
20260505213502 55 262 1.0 5.0 0.00 0.00 0.07 44 1011.0
20260505213002 54 301 2.0 4.0 0.00 0.00 0.07 45 1010.8
20260505212501 54 305 3.0 7.0 0.00 0.00 0.07 41 1010.9
20260505212002 54 326 4.0 7.0 0.00 0.00 0.07 43 1010.7
20260505211502 54 323 2.0 5.0 0.00 0.00 0.07 43 1010.7
20260505211002 54 312 2.0 7.0 0.00 0.00 0.07 45 1010.8
20260505210502 54 297 3.0 5.0 0.00 0.00 0.07 42 1010.8
20260505210002 54 296 3.0 6.0 0.00 0.00 0.07 42 1011.1
20260505205502 54 322 5.0 9.0 0.00 0.00 0.07 44 1011.0
20260505205002 54 304 4.0 9.0 0.00 0.00 0.07 48 1011.0
20260505204501 54 284 3.0 6.0 0.00 0.00 0.07 49 1010.8
20260505204003 54 297 3.0 5.0 0.00 0.00 0.07 48 1011.0
20260505203503 54 10 2.0 10.0 0.00 0.00 0.07 50 1011.0
20260505203002 54 272 4.0 7.0 0.00 0.00 0.07 47 1011.2
20260505202502 54 343 3.0 5.0 0.00 0.00 0.07 47 1011.1
20260505202001 54 296 1.0 4.0 0.00 0.00 0.07 48 1011.1
20260505201502 54 292 3.0 5.0 0.00 0.00 0.07 49 1011.3
20260505201002 54 296 3.0 7.0 0.00 0.00 0.07 46 1011.2
20260505200502 54 296 2.0 6.0 0.00 0.00 0.07 47 1011.0
20260505200001 54 319 5.0 6.0 0.00 0.00 0.07 47 1011.1
20260505195502 54 260 2.0 7.0 0.00 0.00 0.07 48 1011.1
20260505195002 54 281 3.0 7.0 0.00 0.00 0.07 46 1010.9
20260505194502 54 295 4.0 9.0 0.00 0.00 0.07 46 1010.7
20260505194002 55 294 3.0 11.0 0.00 0.00 0.07 45 1011.0
20260505193502 55 313 4.0 7.0 0.00 0.00 0.07 47 1011.0
20260505193002 55 295 1.0 3.0 0.00 0.00 0.07 47 1011.1
20260505192502 55 342 3.0 6.0 0.00 0.00 0.07 45 1011.2
20260505192002 55 274 5.0 9.0 0.00 0.00 0.07 46 1011.0
20260505191502 55 270 2.0 5.0 0.00 0.00 0.07 49 1011.0
20260505191001 55 266 4.0 7.0 0.00 0.00 0.07 48 1011.1
20260505190502 55 258 4.0 7.0 0.00 0.00 0.07 48 1011.1
20260505190003 55 291 3.0 6.0 0.00 0.00 0.07 56 1011.2
20260505185502 55 243 3.0 9.0 0.00 0.00 0.07 54 1011.2
20260505185001 55 303 1.0 6.0 0.00 0.00 0.07 53 1011.2
20260505184502 55 264 5.0 9.0 0.00 0.00 0.07 52 1011.4
20260505184002 55 311 4.0 9.0 0.00 0.00 0.07 55 1011.3
20260505183502 54 354 5.0 7.0 0.00 0.00 0.07 51 1011.4
20260505183002 55 253 4.0 9.0 0.00 0.00 0.07 53 1011.1
20260505182502 55 299 2.0 10.0 0.00 0.00 0.07 55 1011.4
20260505182002 54 295 4.0 6.0 0.00 0.00 0.07 56 1011.2
20260505181501 54 286 4.0 9.0 0.00 0.00 0.07 59 1011.5
20260505181002 54 258 3.0 5.0 0.00 0.00 0.07 60 1011.1
20260505180502 54 331 2.0 7.0 0.00 0.00 0.07 58 1011.2
20260505180002 55 309 0.0 5.0 0.00 0.00 0.07 59 1011.2
20260505175502 54 319 5.0 7.0 0.00 0.00 0.07 57 1011.4
20260505175001 54 299 5.0 7.0 0.00 0.00 0.07 58 1011.1
20260505174502 54 337 5.0 6.0 0.00 0.00 0.07 58 1011.2
20260505174002 54 261 6.0 9.0 0.00 0.00 0.07 56 1011.1
20260505173502 54 314 2.0 5.0 0.00 0.00 0.07 58 1011.0
20260505173001 54 262 3.0 4.0 0.00 0.00 0.07 59 1010.8
20260505172502 54 284 2.0 11.0 0.00 0.00 0.07 61 1011.1
20260505172002 54 305 3.0 9.0 0.00 0.00 0.07 58 1011.1
20260505171502 54 296 3.0 6.0 0.00 0.00 0.07 57 1011.0
20260505171003 55 295 3.0 7.0 0.00 0.00 0.07 55 1010.9
20260505170502 55 318 2.0 6.0 0.00 0.00 0.07 58 1010.7
20260505170002 55 288 2.0 6.0 0.00 0.00 0.07 57 1010.9
20260505165502 56 293 3.0 9.0 0.00 0.00 0.07 54 1010.8
20260505165001 55 315 4.0 9.0 0.00 0.00 0.07 57 1010.6
20260505164502 56 278 4.0 10.0 0.00 0.00 0.07 54 1010.9
20260505164002 57 289 4.0 7.0 0.00 0.00 0.07 51 1010.7
20260505163502 56 271 4.0 6.0 0.00 0.00 0.07 53 1010.9
20260505163001 56 225 4.0 9.0 0.00 0.00 0.07 52 1010.8
20260505162502 56 310 3.0 6.0 0.00 0.00 0.07 53 1010.7
20260505162002 56 312 4.0 7.0 0.00 0.00 0.07 55 1010.4
20260505161501 55 285 1.0 4.0 0.00 0.00 0.07 58 1010.7
20260505161002 55 305 3.0 5.0 0.00 0.00 0.07 63 1010.5
20260505160502 54 313 3.0 6.0 0.00 0.00 0.07 62 1010.5
20260505153001 52 309 3.0 6.0 0.00 0.00 0.07 68 1010.7
20260505152502 51 290 1.0 2.0 0.00 0.00 0.07 74 1010.5
20260505152002 52 290 2.0 6.0 0.00 0.00 0.07 76 1010.5
20260505151502 51 296 2.0 3.0 0.00 0.00 0.07 81 1010.6
20260505151002 50 301 2.0 5.0 0.00 0.00 0.07 82 1010.5
20260505150502 50 296 2.0 6.0 0.00 0.00 0.07 85 1010.6
20260505140501 45 317 3.0 5.0 0.00 0.00 0.07 97 1011.3
20260505125002 46 318 2.0 6.0 0.11 0.00 0.02 88 1010.4
20260505124502 46 289 3.0 4.0 0.07 0.00 0.02 87 1010.0
20260505124002 47 284 2.0 5.0 0.04 0.00 0.00 86 1009.7
20260505123502 48 326 2.0 5.0 0.04 0.00 0.00 82 1009.5
20260505123002 48 292 1.0 3.0 0.00 0.00 0.00 78 1009.5
20260505122502 49 286 3.0 7.0 0.00 0.00 0.00 75 1010.0
20260505122002 50 319 2.0 6.0 0.00 0.00 0.00 73 1009.9
20260505121501 50 0 4.0 5.0 0.00 0.00 0.00 72 1010.0
20260505121002 50 315 1.0 3.0 0.00 0.00 0.00 71 1010.0
20260505120502 50 299 5.0 6.0 0.00 0.00 0.00 69 1009.9
20260505120003 50 315 4.0 5.0 0.00 0.00 0.00 68 1009.8
20260505115502 51 316 2.0 4.0 0.00 0.00 0.00 68 1009.8
20260505115002 51 292 3.0 4.0 0.00 0.00 0.00 67 1009.8
20260505114502 51 301 1.0 3.0 0.00 0.00 0.00 67 1009.3
20260505114001 51 302 2.0 5.0 0.00 0.00 0.00 66 1008.9
20260505113502 51 342 3.0 5.0 0.00 0.00 0.00 68 1008.9
20260505113002 51 294 2.0 3.0 0.00 0.00 0.00 69 1008.4
20260505112502 51 296 2.0 6.0 0.00 0.00 0.00 71 1008.8
20260505112001 50 298 1.0 6.0 0.00 0.00 0.00 76 1008.5
20260505111502 50 313 2.0 3.0 0.00 0.00 0.00 79 1008.4
20260505111002 50 302 2.0 3.0 0.00 0.00 0.00 80 1008.1
20260505110502 50 317 1.0 2.0 0.00 0.00 0.00 80 1007.8
20260505102003 52 287 1.0 3.0 0.00 0.00 0.00 75 1007.7
20260505101503 52 276 2.0 4.0 0.00 0.00 0.00 75 1008.1
20260505101002 51 289 2.0 4.0 0.00 0.00 0.00 76 1007.8
20260505100502 51 288 0.0 0.0 0.00 0.00 0.00 75 1007.7
20260505100002 52 291 0.0 0.0 0.00 0.00 0.00 75 1007.5
20260505095501 52 287 0.0 2.0 0.00 0.00 0.00 74 1007.4
20260505095002 52 290 2.0 3.0 0.00 0.00 0.00 73 1007.4
20260505094502 52 289 1.0 4.0 0.00 0.00 0.00 72 1007.7
20260505094002 52 279 1.0 3.0 0.00 0.00 0.00 71 1007.7
20260505093502 53 287 0.0 3.0 0.00 0.00 0.00 71 1007.4
20260505093002 53 271 1.0 3.0 0.00 0.00 0.00 70 1007.8
20260505092502 53 304 2.0 3.0 0.00 0.00 0.00 70 1007.6
20260505092002 53 286 3.0 4.0 0.00 0.00 0.00 70 1007.6
20260505091502 53 290 0.0 2.0 0.00 0.00 0.00 72 1007.5
20260505091002 53 283 1.0 4.0 0.00 0.00 0.00 72 1007.6
20260505090502 53 281 2.0 4.0 0.00 0.00 0.00 73 1007.3
20260505090002 52 293 1.0 3.0 0.00 0.00 0.00 74 1007.4
20260505085502 52 289 1.0 3.0 0.00 0.00 0.00 75 1007.4
20260505085002 52 283 1.0 2.0 0.00 0.00 0.00 76 1007.0
20260505084502 53 284 1.0 2.0 0.00 0.00 0.00 75 1007.0
20260505084002 52 285 1.0 2.0 0.00 0.00 0.00 71 1006.8
20260505083502 52 292 0.0 0.0 0.00 0.00 0.00 72 1006.2
20260505083002 53 293 0.0 0.0 0.00 0.00 0.00 72 1006.3
20260505082502 53 288 0.0 0.0 0.00 0.00 0.00 70 1006.0
20260505082002 53 287 0.0 0.0 0.00 0.00 0.00 71 1006.0
20260505081503 53 285 1.0 2.0 0.00 0.00 0.00 69 1006.2
20260505081002 54 279 1.0 2.0 0.00 0.00 0.00 68 1006.1
20260505080503 53 263 2.0 3.0 0.00 0.00 0.00 68 1005.8
20260505080002 53 266 2.0 2.0 0.00 0.00 0.00 68 1005.7
20260505075502 53 286 0.0 0.0 0.00 0.00 0.00 68 1005.4
20260505075002 52 286 2.0 3.0 0.00 0.00 0.00 68 1005.3
20260505074503 52 280 1.0 2.0 0.00 0.00 0.00 69 1005.2
20260505074002 51 286 0.0 2.0 0.00 0.00 0.00 71 1005.4
20260505073502 51 296 0.0 0.0 0.00 0.00 0.00 71 1005.2
20260505073002 51 297 0.0 2.0 0.00 0.00 0.00 72 1004.8
20260505072502 52 297 0.0 0.0 0.00 0.00 0.00 72 1004.8
20260505072002 52 293 0.0 0.0 0.00 0.00 0.00 68 1004.8
20260505071502 53 295 0.0 0.0 0.00 0.00 0.00 67 1004.6
20260505071002 54 291 0.0 2.0 0.00 0.00 0.00 65 1004.5
20260505070502 54 289 2.0 2.0 0.00 0.00 0.00 65 1004.6
20260505070002 54 308 2.0 3.0 0.00 0.00 0.00 64 1004.7
20260505065502 55 309 1.0 3.0 0.00 0.00 0.00 63 1005.0
20260505065002 55 295 1.0 3.0 0.00 0.00 0.00 64 1004.9
20260505064502 55 279 2.0 4.0 0.00 0.00 0.00 63 1004.7
20260505064002 56 285 1.0 5.0 0.00 0.00 0.00 63 1004.4
20260505063503 56 301 3.0 6.0 0.00 0.00 0.00 62 1004.2
20260505063002 56 319 2.0 4.0 0.00 0.00 0.00 62 1004.0
20260505062502 57 311 3.0 6.0 0.00 0.00 0.00 61 1004.1
20260505062002 57 291 2.0 6.0 0.00 0.00 0.00 62 1003.9
20260505061502 57 297 3.0 9.0 0.00 0.00 0.00 61 1003.8
20260505061001 57 344 3.0 7.0 0.00 0.00 0.00 62 1003.9
20260505060502 57 304 3.0 5.0 0.00 0.00 0.00 65 1004.1
20260505060002 58 304 2.0 5.0 0.00 0.00 0.00 67 1004.2